Fairbanks International

Airport
ICAO code: 
PAFA
Summary
ICAO Region: 
NAM
Territory: 
Location: 
Fairbanks,
Coordinates: 
Aerial View: 
64° 49' 11.983" N, 147° 51' 51.594" W
Airport BS: 
Bird Strike
Airport CFIT: 
Altimeter Temperature Error Correction
Metar
Observation
PAFA 051953Z 00000KT 10SM BKN070 BKN090 BKN150 M25/M29 A2995 RMK AO2 SLP158 ACSL E-SE T12501294
Station
Fairbanks, Fairbanks International Airport
Date/Time
2021-12-05 19:53:00
Wind direction
Wind speed
00 kts
Lowest cloud amount
broken clouds
Temperature
-25°C
Dew point
-29.4°C
Humidity
66%
Weather condition
n/a

Description

International airport serving Fairbanks, Alaska.

Climatology

Subarctic climate (Köppen climate classification Dfc) - long, usually very cold winters, and short, cool to mild summers.

Runways

Designator Length Width Surface Rops
2/20 884 23 GRVL Yes/Yes
02W/20W 1646 30 WATER No/No
02R/20L 1982 30 ASPH-G Yes/Yes
02L/20R 3597 46 ASPH-G Yes/Yes
Airport map: 
Aerial View: 

SKYbrary Partners:

Safety knowledge contributed by: